Miscellaneous Local Product
Issued by NWS North Platte, NE

Home | Current Version | Previous Version | Text Only | Print | Product List | Glossary On
Versions: 1 2 3 4 5 6 7 8 9 10 11 12 13 14 15 16 17 18 19 20 21 22 23 24 25 26 27 28 29 30 31 32 33 34 35 36 37 38 39 40 41 42 43 44 45 46 47 48 49 50
000
AXUS43 KLBF 311610
MISLBF


WESTERN AND NORTH CENTRAL NEBRASKA HOURLY WEATHER ROUNDUP
NATIONAL WEATHER SERVICE NORTH PLATTE NE
1100 AM CDT FRI OCT 31 2014

***STATIONS NOT REPORTING VARIABLES SUCH AS SKY/WEATHER OR
PRESSURE ARE PROVIDED BY THE NEBRASKA DEPARTMENT OF
ROADS...RAWS...AND APRS NETWORKS...AND ARE NOT UNDER
NATIONAL WEATHER SERVICE QUALITY CONTROL***

...OBSERVATIONS IN AND NEAR THE EASTERN PANHANDLE OF NEBRASKA...

CITY           SKY/WX    TMP DP  RH WIND       PRES   REMARKS
PINE RIDGE     MOSUNNY   34  28  79 S9        30.39F WCI  27
CHADRON        MOSUNNY   37  30  75 S13G18    30.36F WCI  29
ALLIANCE       CLOUDY    31  30  96 SE20      30.39F FOG     WCI  19
SIDNEY         CLOUDY    32  29  88 S17       30.40F WCI  21
WHITECLAY        N/A     32  25  74 S22         N/A  WCI  19
RUSHVILLE        N/A     27  27 100 S18         N/A  WCI  13
CRESCENT LAKE    N/A     30  29  95 SE9G16      N/A  WCI  22
LISCO            N/A     32  28  86 E14         N/A  WCI  22
LEWELLEN         N/A     30  28  92 SE8         N/A  WCI  22
$$

...OBSERVATIONS IN NORTH CENTRAL NEBRASKA...

CITY           SKY/WX    TMP DP  RH WIND       PRES   REMARKS
VALENTINE      MOSUNNY   31  21  66 S10       30.51S WCI  22
THEDFORD       MOSUNNY   32  24  71 S8        30.51F WCI  25
AINSWORTH      SUNNY     29  20  68 SE8       30.52S WCI  22
O`NEILL        SUNNY     31  22  69 SE3       30.57S
ORD            SUNNY     32  20  61 NE6       30.56S WCI  26
BROKEN BOW     SUNNY     32  22  66 S5        30.54S WCI  27
SPRINGVIEW       N/A     31  22  68 E6          N/A  WCI  25
ROSE             N/A     32  23  69 MISG        N/A
NEWPORT          N/A     32  21  64 CALM        N/A
SARGENT          N/A     30  22  72 CALM        N/A
COMSTOCK         N/A     36  21  55 CALM        N/A
CHAMBERS         N/A     33  20  59 E3          N/A
$$

...OBSERVATIONS IN SOUTHWEST NEBRASKA AND FAR NORTHEAST COLORADO...

CITY           SKY/WX    TMP DP  RH WIND       PRES   REMARKS
WRAY           CLOUDY    34  31  88 SE12      30.47F WCI  26
HOLYOKE        FOG       34  32  93 SE9       30.47S VSB 1/4 WCI  26
IMPERIAL       CLOUDY    29  27  92 SE9       30.51S WCI  20
OGALLALA       CLOUDY    32  29  89 SE10      30.49S WCI  24
NORTH PLATTE   CLOUDY    33  24  69 S6        30.52F WCI  28
MCCOOK         CLOUDY    33  24  69 E8        30.55F WCI  26
LEXINGTON      MOSUNNY   32  22  67 SE5       30.56F WCI  28
PAXTON           N/A     30  28  90 S6          N/A  WCI  24
SUTHERLAND       N/A     26  22  84 SE7         N/A  WCI  18
BRADY            N/A     31  23  72 CALM        N/A
GOTHENBURG       N/A     29  22  74 CALM        N/A
CALLAWAY         N/A     29  26  87 SE3         N/A
$$

...SOME WEATHER OBSERVATIONS FROM AROUND THE REGION...

CITY           SKY/WX    TMP DP  RH WIND       PRES   REMARKS
DENVER         PTSUNNY   40  28  62 W7        30.32F
LARAMIE        SUNNY     45  26  47 S17       30.25S
CHEYENNE       SUNNY     35  27  72 S17       30.31F WCI  25
SCOTTSBLUFF    CLOUDY    35  32  88 SE14      30.36F WCI  26
RAPID CITY     CLOUDY    31  29  92 S20G28    30.34F WCI  19
PIERRE         SUNNY     28  24  85 SE10      30.53F WCI  19
WINNER         FAIR      32  19  58 S13       30.53F WCI  22
SIOUX FALLS    MOSUNNY   31  20  63 E10       30.59S WCI  22
OMAHA          SUNNY     34  20  56 N12       30.59S WCI  25
GRAND ISLAND   SUNNY     33  19  56 N9        30.59R WCI  25
KANSAS CITY    SUNNY     37  20  50 N16G24    30.50R WCI  28
WICHITA        MOSUNNY   42  26  53 N16G25    30.51R
HAYS           MOSUNNY   36  21  55 NE15      30.56S WCI  26
LIBERAL        SUNNY     43  30  61 NE9       30.52S
GOODLAND       CLOUDY    32  29  88 SE9       30.50S WCI  24
$$



USA.gov is the U.S. government's official web portal to all federal, state and local government web resources and services.